Temp
-16 -17 -17 -17 -18 -19 -19 -19 -19 -19 -18 -19 -19 -19 -19 -20 -20 -20 -20 -20 -20 -20 -19 -19 -19 -19 -18 -18 -18 -18 -19 -18 -18 -18 -18 -18 -18 -18 -18 -18 -17 -18 -18
-18 -18 -19 -19 -20 -20 -20 -19 -19 -19 -19 -20 -20 -20 -20 -21 -21 -21 -21 -21 -21 -21 -20 -20 -20 -20 -20 -20 -20 -20 -19 -20 -19 -19 -19 -19 -19 -19 -19 -19 -18 -18 -18
-19 -19 -19 -19 -20 -20 -20 -20 -20 -20 -20 -21 -21 -21 -21 -21 -22 -22 -22 -21 -21 -21 -21 -21 -21 -21 -20 -20 -20 -20 -20 -21 -20 -20 -20 -20 -20 -20 -20 -19 -19 -18 -18
-19 -20 -20 -20 -20 -21 -21 -21 -21 -21 -21 -21 -22 -22 -22 -22 -22 -23 -23 -23 -22 -22 -22 -22 -22 -22 -22 -22 -22 -22 -22 -22 -22 -20 -20 -20 -20 -20 -20 -20 -20 -19 -19
-20 -21 -21 -21 -21 -21 -21 -22 -22 -22 -22 -22 -23 -23 -23 -23 -23 -23 -23 -23 -23 -23 -23 -23 -22 -22 -22 -23 -23 -23 -23 -23 -23 -22 -21 -21 -21 -21 -21 -21 -20 -20 -20
-21 -21 -22 -22 -22 -22 -22 -22 -23 -23 -23 -23 -23 -24 -24 -24 -24 -24 -24 -24 -23 -23 -23 -23 -23 -23 -23 -23 -23 -24 -24 -23 -24 -23 -22 -22 -22 -21 -21 -21 -21 -20 -20
-22 -22 -22 -23 -23 -23 -23 -23 -23 -24 -24 -24 -24 -24 -24 -24 -24 -24 -24 -24 -24 -24 -24 -24 -24 -23 -23 -24 -24 -24 -24 -24 -24 -24 -23 -23 -22 -21 -21 -21 -21 -21 -21
-22 -23 -23 -23 -23 -23 -24 -24 -24 -24 -24 -24 -24 -25 -25 -25 -25 -25 -24 -24 -24 -24 -24 -24 -24 -24 -25 -25 -25 -24 -24 -24 -24 -24 -24 -23 -22 -22 -22 -21 -21 -21 -22
-23 -23 -23 -23 -23 -24 -24 -24 -24 -25 -25 -25 -25 -25 -25 -25 -25 -25 -25 -25 -24 -24 -24 -24 -24 -24 -25 -25 -24 -24 -24 -24 -24 -24 -24 -24 -23 -22 -22 -22 -22 -23 -23
-23 -23 -23 -24 -24 -24 -25 -25 -25 -25 -25 -25 -26 -26 -25 -25 -25 -25 -25 -25 -25 -24 -24 -24 -24 -24 -24 -24 -24 -24 -24 -24 -25 -25 -24 -24 -24 -23 -23 -23 -23 -24 -24
-24 -24 -24 -25 -25 -25 -25 -25 -25 -25 -25 -26 -26 -26 -26 -26 -26 -26 -26 -26 -25 -25 -25 -25 -25 -24 -24 -24 -24 -25 -25 -25 -24 -25 -25 -25 -24 -24 -24 -25 -25 -25 -25
-25 -25 -25 -26 -26 -25 -25 -25 -25 -25 -26 -26 -26 -26 -26 -26 -26 -26 -26 -26 -26 -26 -25 -25 -26 -25 -24 -25 -25 -25 -26 -25 -25 -25 -25 -25 -25 -25 -25 -25 -25 -25 -25
-25 -26 -26 -26 -26 -26 -26 -26 -26 -26 -26 -26 -26 -26 -26 -27 -27 -27 -28 -27 -27 -26 -26 -26 -26 -26 -25 -25 -26 -26 -25 -25 -25 -25 -25 -25 -25 -26 -26 -26 -26 -26 -26
-26 -26 -26 -26 -26 -26 -26 -26 -26 -26 -26 -26 -26 -27 -27 -27 -27 -27 -27 -27 -27 -26 -26 -26 -27 -26 -26 -26 -26 -26 -25 -25 -26 -26 -26 -26 -26 -26 -26 -26 -26 -26 -26
-26 -26 -26 -27 -27 -27 -26 -26 -26 -26 -26 -27 -27 -27 -27 -27 -27 -27 -27 -27 -26 -26 -26 -26 -26 -26 -26 -26 -26 -26 -26 -26 -26 -26 -26 -26 -26 -26 -26 -27 -27 -27 -27
-26 -26 -27 -27 -27 -26 -27 -26 -26 -27 -27 -27 -27 -27 -27 -27 -27 -26 -26 -26 -26 -26 -26 -26 -26 -26 -26 -26 -27 -27 -27 -27 -27 -27 -27 -27 -27 -27 -27 -27 -28 -28 -28
-26 -26 -26 -26 -26 -26 -26 -27 -27 -27 -27 -27 -27 -27 -27 -27 -28 -27 -27 -27 -27 -27 -27 -27 -27 -27 -27 -27 -27 -27 -27 -27 -27 -27 -27 -27 -28 -28 -28 -28 -28 -28 -28
-26 -26 -26 -26 -26 -27 -27 -27 -27 -27 -28 -27 -28 -28 -27 -27 -27 -27 -27 -28 -28 -28 -28 -28 -27 -27 -27 -27 -27 -27 -27 -28 -28 -28 -28 -28 -28 -28 -28 -28 -28 -28 -28
-26 -26 -26 -26 -27 -27 -27 -28 -28 -28 -28 -28 -28 -28 -28 -28 -28 -27 -27 -27 -27 -27 -28 -28 -28 -28 -28 -28 -28 -28 -28 -28 -28 -28 -28 -28 -28 -28 -29 -29 -29 -29 -29
-27 -26 -26 -27 -27 -27 -27 -28 -28 -28 -28 -28 -28 -28 -28 -28 -28 -28 -28 -28 -28 -28 -28 -28 -28 -28 -28 -28 -28 -28 -28 -29 -29 -29 -29 -29 -29 -29 -29 -29 -30 -30 -30
-26 -26 -27 -27 -27 -27 -27 -27 -27 -27 -28 -28 -28 -28 -28 -28 -28 -28 -28 -28 -28 -28 -28 -28 -29 -29 -29 -29 -29 -29 -29 -29 -29 -29 -30 -30 -30 -30 -30 -30 -30 -30 -30
-27 -27 -27 -27 -27 -27 -27 -27 -28 -28 -28 -28 -28 -28 -28 -28 -28 -28 -28 -28 -29 -29 -29 -30 -30 -30 -30 -30 -30 -30 -30 -30 -30 -30 -31 -31 -31 -31 -31 -31 -31 -31 -31
-27 -27 -27 -27 -27 -27 -28 -28 -28 -28 -28 -28 -28 -28 -28 -28 -28 -29 -29 -30 -30 -31 -31 -31 -31 -31 -31 -31 -32 -32 -32 -32 -32 -32 -32 -32 -32 -32 -32 -32 -32 -32 -32
-27 -27 -27 -27 -27 -28 -28 -28 -28 -28 -28 -28 -29 -29 -29 -29 -29 -29 -30 -31 -31 -31 -32 -32 -32 -32 -32 -32 -32 -32 -32 -32 -32 -32 -32 -32 -32 -33 -33 -33 -33 -33 -33
-27 -27 -28 -28 -28 -28 -28 -28 -29 -29 -29 -29 -29 -29 -29 -29 -29 -30 -31 -31 -32 -32 -32 -32 -32 -32 -32 -32 -32 -32 -32 -32 -32 -32 -33 -33 -33 -33 -33 -33 -33 -33 -33
-28 -28 -28 -28 -28 -28 -28 -29 -29 -29 -29 -29 -29 -29 -29 -30 -30 -31 -31 -32 -32 -32 -32 -32 -32 -32 -32 -32 -32 -32 -32 -32 -33 -33 -33 -33 -33 -33 -33 -34 -34 -34 -34
Height
5709 5707 5703 5699 5695 5691 5687 5683 5679 5676 5673 5670 5667 5665 5663 5662 5660 5659 5658 5657 5656 5656 5655 5654 5654 5653 5653 5653 5653 5654 5654 5655 5657 5659 5660 5661 5661 5662 5661 5661 5661 5660 5660
5696 5693 5689 5686 5682 5679 5675 5670 5665 5662 5658 5655 5652 5650 5648 5646 5644 5642 5641 5641 5640 5639 5637 5636 5635 5635 5635 5635 5634 5634 5635 5636 5639 5642 5643 5644 5646 5646 5646 5647 5647 5646 5646
5680 5676 5673 5670 5665 5663 5659 5655 5651 5648 5644 5640 5638 5635 5633 5632 5629 5628 5625 5623 5621 5619 5616 5615 5613 5613 5612 5613 5614 5615 5617 5619 5622 5625 5628 5629 5630 5630 5631 5632 5634 5633 5632
5666 5660 5655 5652 5649 5644 5640 5638 5635 5633 5630 5627 5623 5621 5619 5618 5615 5613 5610 5608 5605 5603 5600 5597 5594 5592 5592 5592 5593 5594 5597 5600 5604 5607 5609 5612 5613 5614 5616 5617 5619 5620 5619
5649 5646 5641 5637 5634 5631 5626 5623 5620 5618 5615 5613 5610 5608 5606 5604 5602 5598 5595 5592 5589 5587 5584 5581 5578 5575 5573 5572 5574 5575 5578 5582 5584 5587 5589 5594 5596 5598 5601 5603 5604 5605 5604
5635 5631 5627 5622 5619 5616 5613 5610 5607 5605 5603 5600 5597 5595 5593 5590 5588 5586 5582 5579 5576 5573 5570 5565 5561 5558 5556 5555 5557 5559 5561 5564 5565 5569 5574 5577 5580 5583 5586 5588 5590 5591 5590
5623 5618 5615 5610 5606 5603 5600 5597 5594 5592 5590 5587 5585 5582 5580 5578 5576 5572 5570 5567 5564 5560 5556 5552 5547 5541 5538 5537 5539 5542 5545 5548 5552 5554 5557 5560 5564 5568 5572 5573 5575 5576 5576
5608 5605 5601 5597 5594 5590 5587 5585 5581 5579 5577 5575 5573 5570 5568 5565 5562 5559 5556 5553 5549 5545 5541 5537 5530 5525 5522 5522 5526 5529 5532 5534 5537 5541 5543 5547 5551 5555 5556 5559 5560 5562 5562
5593 5590 5588 5584 5581 5577 5574 5572 5568 5566 5564 5563 5560 5558 5555 5551 5548 5544 5540 5537 5533 5530 5525 5521 5516 5509 5507 5510 5514 5517 5519 5521 5523 5527 5532 5535 5538 5541 5543 5544 5547 5549 5549
5578 5575 5573 5571 5567 5564 5562 5559 5557 5555 5552 5550 5547 5544 5541 5537 5533 5529 5525 5521 5517 5514 5510 5506 5502 5497 5498 5501 5503 5505 5505 5508 5511 5515 5519 5523 5527 5528 5530 5532 5534 5535 5538
5564 5561 5559 5557 5555 5553 5551 5548 5546 5543 5540 5537 5533 5530 5526 5523 5518 5513 5509 5505 5501 5498 5495 5492 5488 5486 5489 5490 5492 5494 5497 5499 5502 5506 5510 5512 5516 5518 5518 5521 5523 5526 5528
5550 5548 5546 5545 5543 5541 5539 5536 5534 5531 5527 5524 5520 5516 5512 5507 5502 5497 5492 5488 5486 5483 5482 5479 5476 5476 5480 5482 5483 5486 5489 5492 5494 5498 5500 5503 5505 5507 5509 5511 5514 5517 5520
5538 5536 5534 5533 5531 5530 5528 5525 5522 5520 5517 5513 5509 5504 5499 5492 5485 5477 5472 5470 5470 5470 5470 5469 5469 5470 5472 5475 5477 5480 5482 5484 5486 5489 5492 5494 5497 5500 5502 5504 5506 5508 5511
5524 5523 5522 5520 5519 5518 5516 5514 5512 5509 5506 5502 5498 5493 5487 5480 5474 5468 5464 5461 5460 5460 5461 5462 5463 5465 5466 5469 5471 5473 5475 5477 5480 5482 5485 5488 5491 5493 5495 5498 5500 5502 5503
5512 5511 5509 5508 5507 5506 5505 5504 5501 5499 5496 5492 5489 5484 5479 5471 5465 5462 5458 5456 5455 5456 5458 5459 5460 5461 5462 5464 5466 5468 5470 5473 5475 5478 5480 5483 5485 5487 5488 5490 5491 5492 5494
5501 5499 5498 5498 5497 5496 5495 5494 5492 5489 5486 5483 5480 5478 5473 5466 5460 5457 5455 5455 5455 5456 5457 5458 5459 5460 5461 5462 5464 5466 5468 5470 5472 5474 5476 5477 5478 5479 5480 5481 5482 5483 5484
5491 5491 5491 5491 5489 5488 5486 5484 5481 5479 5477 5475 5473 5471 5468 5464 5459 5457 5455 5455 5455 5455 5456 5457 5457 5457 5457 5460 5462 5463 5464 5465 5466 5468 5469 5469 5470 5470 5471 5472 5472 5473 5473
5485 5485 5485 5484 5482 5480 5476 5473 5470 5470 5470 5469 5468 5466 5463 5461 5460 5458 5456 5456 5455 5454 5454 5454 5455 5455 5455 5455 5456 5457 5457 5458 5459 5459 5460 5460 5460 5460 5460 5461 5461 5461 5461
5479 5479 5478 5477 5474 5471 5468 5465 5464 5464 5464 5464 5462 5460 5458 5457 5455 5454 5453 5452 5451 5450 5449 5449 5448 5448 5448 5448 5448 5448 5448 5449 5449 5449 5449 5449 5448 5448 5448 5448 5448 5448 5447
5473 5473 5472 5469 5468 5466 5463 5462 5460 5460 5459 5458 5457 5454 5452 5450 5448 5447 5445 5444 5442 5441 5440 5439 5438 5438 5437 5436 5436 5436 5436 5436 5436 5436 5436 5436 5436 5435 5435 5435 5434 5434 5433
5466 5466 5464 5463 5463 5461 5460 5458 5457 5456 5454 5453 5451 5449 5447 5444 5442 5439 5437 5435 5433 5431 5430 5428 5427 5426 5425 5425 5425 5424 5424 5423 5423 5423 5423 5423 5422 5422 5421 5421 5421 5421 5420
5459 5459 5459 5458 5458 5457 5456 5454 5453 5452 5450 5448 5446 5443 5440 5438 5434 5431 5428 5425 5423 5420 5418 5417 5415 5414 5414 5413 5412 5412 5411 5410 5409 5409 5408 5408 5408 5408 5407 5407 5407 5406 5405
5453 5453 5453 5453 5452 5452 5451 5450 5448 5447 5445 5442 5440 5437 5434 5430 5427 5423 5419 5416 5413 5411 5409 5408 5407 5406 5405 5404 5403 5402 5400 5399 5398 5397 5397 5396 5395 5395 5395 5394 5394 5393 5391
5448 5448 5447 5448 5448 5447 5446 5445 5444 5442 5440 5437 5435 5432 5428 5424 5420 5416 5412 5408 5406 5404 5402 5402 5401 5400 5398 5397 5396 5395 5394 5392 5391 5390 5388 5387 5387 5386 5385 5384 5382 5381 5380
5442 5442 5443 5443 5443 5443 5442 5441 5440 5438 5436 5433 5431 5427 5424 5420 5415 5411 5407 5404 5401 5400 5398 5397 5396 5394 5393 5392 5390 5389 5388 5387 5385 5384 5383 5381 5380 5378 5377 5375 5373 5371 5370
5436 5437 5438 5439 5439 5439 5438 5437 5436 5434 5432 5429 5427 5423 5420 5416 5411 5407 5403 5400 5398 5396 5394 5392 5391 5389 5388 5386 5385 5384 5383 5381 5379 5378 5375 5373 5371 5369 5367 5365 5363 5361 5358
Wind_Speed
60 58 60 60 60 58 57 59 62 63 63 61 59 55 52 49 48 49 49 49 49 53 56 58 61 61 61 61 61 60 60 60 56 54 52 52 51 49 47 50 52 53 55
52 58 59 62 62 63 59 61 60 61 61 59 57 53 50 48 48 47 47 49 51 52 54 55 57 61 65 67 67 66 65 65 63 59 56 54 50 51 53 49 49 50 49
55 61 61 63 65 65 69 62 58 58 57 54 52 49 48 47 45 46 46 46 47 48 49 52 55 60 65 68 70 70 67 65 63 61 56 58 56 54 55 55 50 46 45
58 63 63 65 69 63 58 53 54 54 53 50 47 44 44 43 42 42 43 43 47 48 48 52 50 52 54 59 63 65 63 65 63 60 65 67 54 52 54 51 51 48 44
60 60 60 60 61 59 58 56 54 51 47 46 44 43 43 43 43 43 48 46 47 44 50 51 52 54 55 56 54 54 57 56 62 63 61 59 54 54 56 52 50 48 47
56 56 54 57 59 59 57 55 49 46 45 43 43 45 43 44 46 47 49 51 49 46 49 53 52 50 50 50 49 47 49 58 54 57 61 60 58 56 53 50 50 50 48
53 53 56 57 57 56 52 48 50 48 44 44 44 45 45 47 48 49 50 53 51 50 51 51 52 48 48 44 44 47 46 48 53 47 52 52 49 53 50 50 50 50 50
49 52 53 52 53 52 52 51 47 44 45 47 45 43 44 48 50 50 49 52 52 53 53 52 55 48 47 38 38 41 45 43 45 48 41 49 48 48 43 44 48 47 44
48 51 52 52 52 49 45 43 44 42 40 42 44 47 49 51 50 53 53 53 52 52 52 53 54 47 39 35 36 34 40 50 46 43 48 47 50 45 47 47 44 42 42
48 48 51 47 44 41 37 35 36 39 41 45 49 50 52 53 54 54 54 56 56 57 55 55 52 37 35 33 35 40 38 40 40 44 43 46 43 43 43 40 39 39 39
49 49 45 38 37 39 44 44 43 44 47 49 48 50 51 51 52 53 52 54 54 56 53 49 46 34 35 34 31 32 40 38 41 40 41 39 39 35 31 31 34 40 40
46 44 41 38 37 38 40 40 43 43 44 45 47 49 50 51 53 56 59 58 54 44 38 38 28 25 30 28 27 28 29 29 29 29 30 30 29 31 33 35 36 36 32
42 40 41 42 41 42 45 46 43 43 44 44 46 46 47 51 53 49 41 40 39 30 23 21 17 18 21 23 22 23 26 28 26 23 22 24 27 30 31 33 33 32 28
39 39 39 40 38 38 42 42 40 40 41 42 39 41 41 43 40 39 32 30 22 16 17 18 16 17 17 20 22 24 22 19 19 20 21 23 25 26 27 29 27 25 24
38 38 40 42 43 43 40 39 38 39 37 34 32 33 35 32 30 28 25 12 5 5 6 6 6 8 9 10 10 10 12 14 17 19 21 23 25 25 24 24 23 24 25
36 36 35 33 30 31 33 35 36 34 30 29 28 28 30 29 20 15 11 5 2 2 4 4 4 4 4 5 7 9 12 15 18 20 21 21 21 22 22 23 25 27 29
31 29 26 27 27 29 32 34 35 29 27 24 23 22 21 20 15 10 5 4 4 5 5 6 6 6 7 9 12 15 17 19 21 22 22 22 23 24 26 28 30 32 35
22 23 22 23 26 29 31 31 27 22 19 18 15 18 16 16 16 19 17 12 7 7 10 12 14 16 17 18 19 20 22 23 25 26 27 27 28 29 30 32 34 36 38
19 20 21 22 23 25 22 15 14 15 16 18 21 23 20 19 21 22 22 21 21 20 21 23 25 27 28 28 29 28 29 30 31 32 33 34 35 36 37 38 40 41 42
19 18 19 20 18 17 14 12 12 14 16 18 21 21 21 21 22 24 25 27 28 30 32 33 33 33 33 34 35 35 35 36 37 38 38 38 39 39 40 40 41 43 43
16 17 16 16 14 12 9 8 8 10 12 15 18 20 21 23 25 27 29 30 31 32 33 33 33 32 31 31 31 33 35 38 41 42 41 41 41 42 42 42 42 42 43
14 15 15 14 12 11 10 11 12 15 17 19 20 21 23 25 27 29 31 33 34 34 33 32 30 29 28 28 28 29 30 32 34 36 38 40 40 40 40 41 42 42 42
14 14 15 14 13 13 13 14 15 16 17 18 18 19 21 23 25 28 29 29 28 26 24 22 20 20 21 21 21 22 22 23 24 25 27 29 32 35 37 37 37 37 37
14 15 13 13 12 11 12 13 14 15 15 16 17 19 21 24 25 26 26 25 22 19 18 16 16 16 16 15 16 17 17 17 18 19 21 22 24 26 27 29 30 31 32
14 14 13 11 10 9 11 12 12 13 14 15 17 19 22 24 25 24 22 19 17 15 15 15 16 17 17 16 15 15 15 15 17 17 19 20 21 23 24 26 28 30 32
13 12 12 10 9 9 10 10 11 12 14 16 18 20 22 24 24 23 21 19 17 16 15 15 16 16 16 15 14 14 17 19 22 24 26 27 28 29 30 31 32 33 35
Wind_Direction
294 296 295 293 291 291 290 289 290 291 291 291 290 290 288 286 283 279 277 275 270 268 266 263 259 259 260 260 263 262 262 263 264 263 262 262 261 261 269 266 268 272 277
294 297 293 287 286 286 291 292 289 288 287 286 286 286 285 284 283 282 282 280 280 277 275 274 271 267 265 263 260 258 258 258 260 261 259 258 260 265 266 270 275 275 273
292 293 291 288 287 286 290 288 285 283 282 283 283 284 284 285 283 284 285 287 290 289 287 279 270 265 262 260 260 260 260 261 259 260 260 260 262 262 265 269 268 269 269
290 288 287 288 287 288 284 284 283 283 281 282 283 283 281 280 280 282 286 288 293 297 296 283 273 272 267 266 263 258 255 254 257 260 259 261 255 259 263 268 267 267 267
287 287 286 288 290 289 290 291 290 288 288 285 281 276 275 277 280 284 288 291 296 295 297 289 276 279 273 262 263 262 256 253 253 251 255 256 255 259 261 265 267 264 265
286 287 288 288 290 290 289 289 289 288 286 281 276 272 275 280 279 282 286 290 291 296 299 295 292 280 276 266 260 261 257 250 262 252 254 251 248 255 260 263 264 268 267
293 291 287 288 289 289 289 288 286 286 280 274 272 272 276 278 278 280 283 289 292 296 298 297 300 286 273 256 252 255 255 251 253 260 257 253 250 253 261 260 261 266 268
290 286 285 287 287 286 286 286 286 281 275 271 272 277 280 281 282 285 287 288 290 290 294 296 304 290 268 249 249 255 253 256 259 255 261 242 249 252 254 267 263 261 262
289 285 285 283 282 283 284 287 282 277 276 276 277 281 282 285 288 289 289 287 288 289 290 294 302 288 254 247 251 256 264 258 248 257 254 242 247 248 258 258 254 256 256
290 283 283 284 282 280 284 286 282 276 276 277 279 283 285 286 287 289 290 289 288 288 288 292 298 272 248 251 252 258 262 253 247 236 238 244 252 253 249 250 256 255 249
290 285 286 286 285 279 276 279 282 280 280 284 285 284 287 290 291 289 287 290 287 284 285 290 288 256 251 254 261 265 254 253 250 242 246 250 251 247 249 251 249 246 240
285 284 283 282 288 278 279 282 284 283 283 284 288 292 293 291 291 290 287 287 283 280 280 285 273 252 252 260 269 266 260 252 246 249 249 246 248 248 247 247 245 240 238
281 278 277 280 276 272 278 282 286 287 288 292 294 296 295 298 300 297 287 280 274 274 276 275 276 275 266 267 263 256 245 242 239 242 248 253 252 249 247 244 240 239 244
280 278 277 274 271 279 281 285 287 287 291 293 295 299 303 303 298 299 295 289 272 267 272 272 267 263 264 264 256 249 241 242 246 252 252 249 248 247 246 246 245 248 252
282 279 276 273 276 279 282 283 288 291 292 292 299 303 312 310 305 300 295 287 262 259 262 265 257 249 240 237 245 254 261 259 255 252 247 244 244 244 246 249 253 258 261
280 276 278 277 279 282 282 285 288 288 291 295 294 303 319 321 309 304 279 258 251 257 265 260 258 258 266 271 271 266 261 256 250 248 248 249 252 256 258 260 262 265 267
280 280 278 278 280 287 286 285 286 288 292 291 299 301 309 334 358 339 288 229 229 244 269 282 288 298 295 274 262 259 259 261 262 264 264 266 267 268 269 269 270 268 267
272 272 275 285 287 288 294 291 287 283 276 289 296 304 307 305 308 318 322 328 316 303 294 288 284 280 276 276 277 278 278 277 274 273 272 271 271 271 271 271 269 269 269
267 274 282 287 294 301 301 299 290 273 275 280 284 296 297 296 294 293 289 288 290 287 283 285 285 285 285 284 282 280 276 273 272 270 270 270 271 271 271 270 270 271 270
265 277 288 297 296 305 300 296 293 287 289 289 290 295 298 298 294 291 289 288 285 284 284 283 282 281 280 279 278 277 275 273 273 273 273 273 272 272 272 272 271 272 274
262 278 292 294 284 295 304 305 304 304 302 302 301 301 302 300 298 297 295 293 290 288 286 285 285 284 281 278 275 272 270 270 269 268 269 270 271 272 272 273 274 274 273
270 281 284 278 274 278 287 294 300 304 305 304 304 305 303 301 299 296 294 292 291 290 290 290 288 286 283 281 279 277 275 273 272 271 270 270 270 270 270 270 271 272 272
269 276 278 274 269 274 282 294 304 307 309 311 314 315 316 314 311 308 305 302 299 295 293 290 287 287 287 287 288 289 288 286 283 280 278 276 275 274 272 272 271 270 270
265 275 279 270 269 275 286 299 304 310 314 321 326 328 328 327 324 319 314 310 306 301 294 290 291 297 296 297 295 291 290 290 290 289 288 286 285 283 280 278 276 275 275
263 275 266 262 267 278 293 299 306 313 321 329 332 334 336 337 337 330 322 316 313 307 303 297 291 291 295 294 295 297 301 302 302 299 296 293 291 289 286 285 284 283 282
259 253 251 254 263 281 292 300 307 320 328 332 334 333 336 342 342 337 328 318 308 305 302 301 300 298 294 292 291 299 305 304 302 300 298 296 294 292 290 289 287 285 285